Flight Track Log - Related Links

Times and Time Zones

All times are in EDT time to prevent confusion due to time zone crossing. See the N449ND flight status page for this flight to view local times or setup timezone preferences in your user account.

Time Position Orientation Groundspeed Altitude Reporting Facility
EDT Latitude Longitude Course Direction KTS MPH feet Rate Location/Type
Tue 04:08:29 PM 27.4817 -80.3464 188° South 80 92 800  Level Miami Center
Tue 04:09:31 PM 27.4597 -80.3500 188° South 82 94 1,300 435 Climbing Miami Center
Tue 04:10:33 PM 27.4353 -80.3514 183° South 82 94 1,700 390 Climbing Miami Center
Tue 04:11:34 PM 27.4178 -80.3692 222° Southwest 84 97 2,100 195 Climbing Miami Center
Tue 04:12:36 PM 27.4003 -80.3936 231° Southwest 90 104 2,100 194 Level Miami Center
Tue 04:13:38 PM 27.3922 -80.4231 253° West 96 110 2,500 435 Climbing Miami Center
Tue 04:14:40 PM 27.3864 -80.4503 256° West 89 102 3,000 387 Climbing Miami Center
Tue 04:15:42 PM 27.3811 -80.4753 257° West 88 101 3,300 339 Climbing Miami Center
Tue 04:16:44 PM 27.3728 -80.5019 251° West 87 100 3,700 387 Climbing Miami Center
Tue 04:17:46 PM 27.3653 -80.5294 253° West 89 102 4,100 194 Climbing Miami Center
Tue 04:18:48 PM 27.3575 -80.5597 254° West 93 107 4,100 -48 Level Miami Center
Tue 04:19:50 PM 27.3333 -80.5750 209° Southwest 103 119 4,000  Descending Miami Center
Tue 04:20:52 PM 27.3078 -80.5844 198° South 102 117 4,100  Climbing Miami Center
Tue 04:21:53 PM 27.2781 -80.5922 193° South 103 119 4,000  Descending Miami Center
Tue 04:22:55 PM 27.2486 -80.5992 192° South 103 119 4,100 48 Climbing Miami Center
Tue 04:23:57 PM 27.2189 -80.6036 188° South 103 119 4,100 -48 Level Miami Center
Tue 04:24:59 PM 27.1906 -80.6125 196° South 103 119 4,000  Descending Miami Center
Tue 04:26:01 PM 27.1650 -80.6161 187° South 100 115 4,100 48 Climbing Miami Center
Tue 04:27:03 PM 27.1372 -80.6222 191° South 98 113 4,100  Level Miami Center
Tue 04:28:04 PM 27.1064 -80.6239 183° South 102 117 4,100  Level Miami Center
Tue 04:29:06 PM 27.0778 -80.6203 174° South 100 115 4,100  Level Miami Center
Tue 04:30:08 PM 27.0467 -80.6153 172° South 105 121 4,100 -48 Level Miami Center
Tue 04:31:10 PM 27.0197 -80.6083 167° South 103 119 4,000 -48 Descending Miami Center
Tue 04:32:12 PM 26.9906 -80.6083 180° South 102 117 4,000 -242 Level Miami Center
Tue 04:33:14 PM 26.9606 -80.6058 176° South 104 120 3,500 -439 Descending Miami Center
Tue 04:34:15 PM 26.9406 -80.5844 136° Southeast 100 115 3,100 -195 Descending Miami Center
Tue 04:35:17 PM 26.9206 -80.5594 132° Southeast 100 115 3,100  Level Miami Center
Tue 04:36:19 PM 26.9019 -80.5344 130° Southeast 100 115 3,100  Level Miami Center
Tue 04:37:21 PM 26.8825 -80.5133 136° Southeast 100 115 3,100  Level Miami Center
Tue 04:38:23 PM 26.8636 -80.4881 130° Southeast 101 116 3,100  Level Miami Center
Tue 04:39:25 PM 26.8439 -80.4664 136° Southeast 98 113 3,100  Level Miami Center
Tue 04:40:27 PM 26.8178 -80.4578 164° South 93 107 3,100 -242 Level Miami Center
Tue 04:41:29 PM 26.7892 -80.4558 177° South 96 110 2,600 -484 Descending Miami Center
Tue 04:42:31 PM 26.7611 -80.4539 176° South 100 115 2,100 -244 Descending Miami Center
Tue 04:43:32 PM 26.7311 -80.4486 171° South 102 117 2,100  Level Miami Center
Tue 04:44:34 PM 26.7119 -80.4289 137° Southeast 99 114 2,100  Level Miami Center
Tue 04:45:36 PM 26.6975 -80.4028 122° Southeast 99 114 2,100  Level Miami Center
Tue 04:46:38 PM 26.6947 -80.3700 95° East 99 114 2,100  Level Miami Center
Tue 04:47:40 PM 26.6931 -80.3378 93° East 103 119 2,100  Level Miami Center
Tue 04:48:42 PM 26.6928 -80.3042 91° East 103 119 2,100  Level Miami Center
Tue 04:49:44 PM 26.6911 -80.2742 94° East 100 115 2,100  Level Miami Center
Tue 04:50:46 PM 26.6894 -80.2444 94° East 98 113 2,100 -97 Level Miami Center
Tue 04:51:48 PM 26.6881 -80.2153 93° East 88 101 1,900 -290 Descending Miami Center
Tue 04:52:50 PM 26.6867 -80.1889 93° East 87 100 1,500 -435 Descending Miami Center
Tue 04:53:52 PM 26.6847 -80.1608 94° East 85 98 1,000 -290 Descending Miami Center
Tue 04:54:54 PM 26.6839 -80.1383 92° East 85 98 900 -97 Descending Miami Center
Tue 04:56:00 PM 26.6745 -80.1083 109° East  Level FlightAware Approximate
Tue 05:03:00 PM 26.6832 -80.0956 106° East  Level Estimated

Login

Don't have an account? Register now (free) for customized features, flight alerts, and more!